Simultaneous Nadir Overpasses (SNOs) Predictions

Prediction of SNOs between GOES-16 and NOAA-19 Satellite Orbit:

Table of predicted SNOs for the next 14.0 days since TLE Epoch: 4/8/2023
Index Date Time (GOES-16) GOES-16 Lat,Lon NOAA-19 Lat,Lon Distance(km) Time Diff (sec)
1 04/09/2023 01:22:37 -0.05, -75.20 0.18, -74.21 113.54 80
2 04/10/2023 01:10:38 -0.05, -75.20 0.86, -71.29 446.96 80
3 04/11/2023 13:45:21 0.05, -75.21 0.90, -78.97 428.55 80
4 04/12/2023 13:33:21 0.05, -75.21 0.22, -76.05 95.11 80
5 04/13/2023 13:18:42 0.04, -75.22 -0.46, -73.13 238.55 80
6 04/16/2023 01:41:43 -0.04, -75.22 -0.69, -77.96 313.08 80
7 04/17/2023 01:27:03 -0.04, -75.23 0.01, -75.04 21.46 80
8 04/18/2023 01:15:04 -0.04, -75.24 0.71, -72.12 356.27 80
9 04/20/2023 13:37:48 0.04, -75.28 0.39, -76.89 182.41 80
10 04/21/2023 13:23:07 0.04, -75.30 -0.25, -73.95 152.84 80
